Location: Bailleul
(50.3375°N, 2.8513°E)
Time: 04:48:01
(UTC+00:00)

Cosmos 1980 - Pass Details

Date: 29 October 2021
Orbit: 839 x 847 km, 71.0° (Epoch: 01 December)

Event Time Altitude Azimuth Distance (km) Brightness Sun altitude
Exits shadow 03:54:52 10° 339° (NNW) 2,481 6.0 -25.8°
Reaches altitude 10° 03:54:54 10° 339° (NNW) 2,472 6.0 -25.8°
Maximum altitude 04:00:18 43° 51° (NE) 1,166 4.7 -25.0°
Drops below altitude 10° 04:05:41 10° 123° (ESE) 2,465 6.7 -24.1°
Sets 04:08:15 0° 130° (SE) 3,397 7.5 -23.7°
